Location: Bergnershof
(48.9468°N, 10.9431°E)
Time: 23:57:40
(UTC+00:00)

Cosmos 2333 Rocket - Pass Details

Date: 03 March 2021
Orbit: 837 x 864 km, 70.8° (Epoch: 13 April)

Event Time Altitude Azimuth Distance (km) Brightness Sun altitude
Rises 20:31:56 0° 235° (SW) 3,397 5.6 -33.7°
Reaches altitude 10° 20:34:34 10° 243° (WSW) 2,470 4.9 -34.0°
Maximum altitude 20:39:47 37° 310° (NW) 1,313 3.5 -34.7°
Drops below altitude 10° 20:45:04 10° 17° (NNE) 2,499 4.8 -35.4°
Sets 20:47:45 0° 26° (NNE) 3,443 5.5 -35.8°
